www.pogodaiklimat.ru

Погода и климат >> Архив погоды >> Россия >> Якутия >> Юрты


ПОГОДА в Юртах

  • Прогноз погоды в Юртах
  • Монитор погоды в Юртах

АРХИВ ПОГОДЫ в Юртах

Время (UTC), дата Ветер
(напр.,м/с)
 
Видим.   Явления Облачность Т
(С)
Тd
(С)
f
(%)
Тe
(С)
Тes
(С)
Комфортность P
(гПа)
Po
(гПа)
Тmin
(С)
Tmax
(С)
R
(мм)
R24
(мм)
S
(см)
12 11.06 Ю 3 50 км 4/0
[Ci fib]
+15.8 +5.8 51 +15 +15 1006.9 939.7
15 11.06 Ю 4 50 км 3/0
[Ci fib]
+10.3 +5.5 72 +8 +8 1008.8 940.3
18 11.06 Ю 5
{10}
50 км ясно +6.6 +1.1 68 +3 +3 1010.3 940.7
21 11.06 ЮВ 6
{11}
50 км 6/6 600 м
[Cb cap]
+9.6 +3.1 64 +6 +7 1010.3 941.4 +5.6
00 12.06 ЮВ 5
{10}
50 км 3/3 1000 м
[Sc]
+16.8 +7.2 53 +16 +20 1007.9 940.9
03 12.06 Ю 2
{11}
50 км гроза без осадков 10/10 600 м
[Cb cap]
+17.8 +7.8 52 +18 +18 1006.2 939.5
06 12.06 ЮВ 3 50 км {гроза} 8/8 600 м
[Cb cap]
+20.1 +5.9 39 +21 +23 комфорт 1004.9 938.7
09 12.06 Ю 2 50 км 6/6 600 м
[Cb cap]
+19.7 +5.2 39 +21 +22 комфорт 1004.3 938.2 +21.4
12 12.06 Ю 3 50 км 1/0
[Ci fib]
+17.0 -0.2 31 +17 +17 1004.3 938.0
15 12.06 Ю 3 50 км 3/3 1000 м
[Sc]
+10.8 +5.4 69 +9 +9 1007.9 939.5
18 12.06 Ю 2 50 км 4/4 1000 м
[Sc]
+7.7 +3.0 72 +6 +6 1009.7 940.4
21 12.06 Ю 4 50 км 8/8 1000 м
[Sc]
+10.8 +5.4 69 +9 +9 1009.5 941.0 +7.7
00 13.06 ЮВ 4 50 км 4/4 1000 м
[Sc]
+15.0 +5.3 52 +14 +18 1008.3 940.8
03 13.06 Ю 3 50 км 5/5 600 м
[Cb cap]
+20.8 +5.5 37 +22 +27 комфорт 1005.4 939.4
06 13.06 Ю 3 50 км 8/8 600 м
[Cb cap]
+21.2 +3.2 31 +21 +23 комфорт 1004.5 938.5
09 13.06 Ю 3 50 км 10/6 1000 м
[Sc Ci fib]
+20.4 +3.4 33 +21 +22 комфорт 1004.8 938.7 +21.8
12 13.06 Ю 2 50 км 9/9 1000 м
[Sc]
+18.2 +3.5 38 +19 +19 1006.0 939.3
15 13.06 Ю 3 50 км 9/9 1000 м
[Sc]
+14.9 +5.2 52 +14 +14 1008.3 940.8
18 13.06 Ю 4 50 км 8/8 1000 м
[Sc]
+8.3 +3.1 70 +5 +5 1011.1 941.9
21 13.06 Ю 6
{10}
50 км 10/8 1000 м
[Sc Ci fib]
+12.4 +6.1 65 +10 +10 1011.1 942.8 +8.3
00 14.06 Ю 3 50 км 10/8 1000 м
[Sc Ci fib]
+15.3 +4.4 48 +15 +16 1010.4 942.9
03 14.06 С 3 50 км 10/8 600 м
[Cb cap Ci fib]
+20.3 +7.2 43 +22 +23 комфорт 1008.2 941.9
06 14.06 СЗ 2 20 км слаб. ливневой дождь 10/10 600 м
[Cb cap]
+16.2 +7.7 57 +16 +16 1009.4 942.2
09 14.06 штиль 0 50 км {ливн. осадки} 10/8 600 м
[Cb cap Ci fib]
+15.6 +12.5 82 +15 +16 1009.2 942.0 +21.6 3
12 14.06 З 4 50 км {ливн. осадки} 10/4 1000 м
[Sc Ci fib]
+14.2 +8.4 68 +13 +13 1010.3 942.5
15 14.06 Ю 2 50 км 10/4 1000 м
[Sc Ci fib]
+10.4 +8.4 87 +9 +9 1012.0 943.4
18 14.06 штиль 0 50 км 10/8 1000 м
[Sc Ci fib]
+7.6 +7.2 97 +7 +7 1013.6 944.1
21 14.06 Ю 3 50 км 10/6 1000 м
[Sc Ci fib]
+11.3 +7.8 79 +10 +11 1014.3 945.4 +7.6
00 15.06 Ю 4 50 км 10/4 1000 м
[Sc Ci fib]
+12.6 +7.3 70 +11 +14 1013.3 945.0
03 15.06 Ю 2 50 км {ливн. осадки} 10/8 600 м
[Cb cap Ci fib]
+16.2 +8.8 62 +16 +18 1011.5 944.1
06 15.06 СЗ 2 50 км {ливн. осадки} 9/9 600 м
[Cb cap]
+15.8 +9.0 64 +16 +17 1010.7 943.3
09 15.06 Ю 5
{11}
20 км слаб. ливневой дождь 10/10 600 м
[Cb cap]
+12.4 +9.0 80 +10 +10 1012.5 944.3 +16.2 5
12 15.06 З 3 50 км {ливн. осадки} 8/5 1000 м
[Sc Ci fib]
+12.0 +7.5 74 +10 +10 1013.3 944.8
15 15.06 штиль 0 50 км 3/3 1000 м
[Sc]
+6.2 +5.3 94 +5 +5 1015.6 945.5
18 15.06 штиль 0 50 км ясно +8.3 +5.4 82 +8 +8 1016.1 946.5
21 15.06 штиль 0 50 км ясно +11.5 +7.1 74 +11 +16 1016.1 947.3 +6.2
00 16.06 Ю 2 50 км 3/3 1000 м
[Sc]
+16.2 +6.2 51 +16 +23 1014.6 947.0
03 16.06 ЮВ 4 50 км 8/8 1000 м
[Sc]
+18.0 +4.7 41 +18 +20 1013.4 946.2
06 16.06 С 4 50 км 8/8 600 м
[Cb cap]
+21.4 +4.7 34 +22 +23 комфорт 1010.5 944.3
09 16.06 штиль 0 50 км 3/3 1000 м
[Sc]
+21.6 +1.9 27 +21 +23 комфорт 1009.3 943.0 +21.7
12 16.06 штиль 0 50 км ясно +18.1 +7.0 48 +18 +18 1009.2 942.4
15 16.06 СЗ 2 50 км 8/8 600 м
[Cb cap]
+8.7 +3.6 70 +7 +7 1011.3 942.1
18 16.06 СЗ 1 50 км 4/4 1000 м
[Sc]
+5.4 +3.0 85 +4 +4 1012.0 942.0
21 16.06 штиль 0 50 км ясно +11.8 +7.5 75 +11 +16 1011.0 942.6 +4.5
00 17.06 штиль 0 50 км 4/0
[Ac trans]
+19.4 +5.9 41 +20 +30 1008.0 941.5
03 17.06 50 км н/о +23.6 +1.8 24 +23 +24 комфорт 1004.6 939.2
06 17.06 С 3 20 км слаб. ливневой дождь 10/10 600 м
[Cb cap]
+19.1 +6.0 42 +20 +20 1005.5 939.1
09 17.06 СЗ 1 50 км {ливн. осадки} 9/9 600 м
[Cb cap]
+20.0 +4.9 37 +22 +22 комфорт 1005.3 939.1 +24.2 2
12 17.06 штиль 0 20 км слаб. ливневой дождь 9/9 600 м
[Cb cap]
+13.2 +10.9 86 +13 +13 1009.3 941.5
15 17.06 Ю 1 50 км {ливн. осадки} 3/3 1000 м
[Sc]
+7.2 +5.9 91 +6 +6 1011.9 942.3
18 17.06 Ю 1 50 км {ливн. осадки} 8/8 1000 м
[Sc]
+4.4 +2.7 89 +3 +3 1013.3 942.9
21 17.06 Ю 3 50 км 8/8 1000 м
[Sc]
+8.6 +3.2 69 +6 +7 1012.3 943.0 +4.0 0.5
00 18.06 Ю 1 50 км 4/3 1000 м
[Cu hum Ac trans]
+16.5 +5.2 47 +17 +25 1005.5 942.6
03 18.06 ЮВ 1 50 км 9/8 1000 м
[Cu Sc Ac trans]
+19.6 +6.2 42 +21 +23 комфорт 1007.7 941.4
06 18.06 Ю 1 50 км 10/10 1000 м
[Cb cap]
+18.6 +7.4 48 +20 +20 1007.8 941.2
09 18.06 штиль 0 50 км 10/10 1000 м
[Sc]
+17.7 +5.4 44 +18 +18 1008.4 941.5 +20.0

 

Местоположение метеостанции Юрты (Якутия, Россия): широта 64.05 долгота 141.80 высота над уровнем моря 590 м.

В архиве по умолчанию представлена погода в Юртах за последнюю неделю. Архивные данные за месяц целиком и за предыдущие месяцы, начиная с января 2011 года, Вы можете получить, выбрав интересующий диапазон дат из раскрывающегося списка и нажав кнопку "Ввод!".


*Определитесь, кто Вы:
робот инопланетянин человек

Внимание! Время в таблицах - всемирное. Для получения местного времени необходимо прибавить поправку, которая равна 10 ч.

Смотрите также архив погоды в соседних городах и на ближайших метеорологических станциях:

Погода в Агаякане (Якутия, Россия) (80 км)
Погода в Усть-Нере (Якутия, Россия) (82 км)
Погода в Оймяконе (Якутия, Россия) (110 км)
Погода в Восточной (Якутия, Россия) (142 км)
Погода в Делянкире (Якутия, Россия) (187 км)
Погода в Усть-Моме (Якутия, Россия) (275 км)
Погода в Теплом Ключе (Якутия, Россия) (286 км)
Погода в Томпо (Якутия, Россия) (293 км)
Погода в Иэме (Якутия, Россия) (317 км)
Погода в Сусумане (Магаданская область, Россия) (344 км)

Пояснения к столбцам:

Ветер - указаны скорость ветра в м/с - средняя за 10 мин, порывы в срок и между сроками (в фигурных скобках) и направление, откуда дует ветер: С - северный, СВ - северо-восточный, В - восточный, ЮВ - юго-восточный, Ю - южный, ЮЗ - юго-западный, З - западный, СЗ - северо-западный.
Видимость - горизонтальная дальность видимости в метрах или километрах. При видимости от 1 до 10 км при отсутствии осадков обычно наблюдается дымка, при ухудшении видимости до 1 км и менее - туман. В сухую погоду видимость может ухудшаться дымом, пылью или мглою.
Явления - указаны атмосферные явления, наблюдавшиеся в срок или в последний час перед сроком; фигурными скобками обозначены явления, наблюдавшиеся между сроками (за 1-3 часа до срока); квадратными скобками обозначены град или гололедные отложения с указанием их диаметра в мм.
Облачность - указаны через наклонную черту общая и нижняя облачность в баллах и высота нижней границы облаков в метрах; квадратными скобками обозначены формы облаков: Ci - перистые, Cs - перисто-слоистые, Cc - перисто-кучевые, Ac - высококучевые, As - высокослоистые, Sc - слоисто-кучевые, Ns - слоисто-дождевые, Cu - кучевые, Cb - кучево-дождевые. Подробнее классификацию облаков см. в Атласе облаков (PDF).
T - Температура воздуха - температура, измеренная на высоте 2 м над землей.
Td - Температура точки росы - температура, при понижении до которой содержащийся в воздухе водяной пар достигнет насыщения.
f - Относительная влажность воздуха - влажноcть воздуха, измеренная на высоте 2 м над землей.
Te - Эффективная температура - температура, которую ощущает одетый по сезону человек в тени. Характеристика душности погоды. При расчете учитывается влияние влажности воздуха и скорости ветра на теплоощущения человека.
Tes - Эффективная температура на солнце - температура, которую ощущает человек, с поправкой на солнечный нагрев. Характеристика знойности погоды. Зависит от высоты солнца над горизонтом, облачности и скорости ветра. Ночью, в пасмурную погоду, а также при ветре 12 м/с и более поправка равна нулю.
P - Атмосферное давление - приведенное к уровню моря атмосферное давление.
Po - Атмосферное давление - измеренное на уровне метеостанции атмосферное давление.
Tmin - Минимальная температура - минимум температуры воздуха на высоте 2 м над землей.
Tmax - Максимальная температура - максимум температуры воздуха на высоте 2 м над землей.
R - Количество осадков - Количество выпавших осадков за период времени, мм. При наведении курсора мыши на число - период времени, за который выпало указанное количество осадков.
R24 - Количество осадков - Количество выпавших осадков за 24 часа, мм.
S - Снежный покров - Высота снежного покрова, см. При наведении курсора мыши на число - состояние снежного покрова и степень покрытия местности в баллах.